Regional Weather Roundup
Issued by NWS

Home | Current Version | Previous Version | Graphics & Text | Print | Product List | Glossary On
Versions: 1 2 3 4 5 6 7 8 9 10 11 12 13 14 15 16 17 18 19 20 21 22 23 24 25 26 27 28 29 30 31 32 33 34 35 36 37 38 39 40 41 42 43 44 45 46 47 48 49 50
000
ASUS45 KABQ 220910
RWRNM
WEATHER ROUNDUP FOR NEW MEXICO
NATIONAL WEATHER SERVICE ALBUQUERQUE NM
300 AM MDT WED OCT 22 2014

NOTE: "FAIR" MEANS FEW OR NO CLOUDS BELOW 12,000 FEET AGL WITH NO
       SIGNIFICANT WEATHER OR OBSTRUCTIONS TO VISION.

      THIS PRODUCT IS RELEASED AS TWO VERSIONS.  ONE VERSION NEAR
      THE TOP OF THE HOUR CONTAINING PRELIMINARY DATA FROM ALBUQUERQUE
      AND OTHER STATIONS.  A FINAL VERSION WITH ADDITIONAL DATA IS
      ISSUED ABOUT 10 MINUTES AFTER THE HOUR.

NMZ501-503-504-510>518-221000-
NORTHWEST PLATEAU/NORTHCENTRAL MOUNTAINS

CITY           SKY/WX    TMP DP  RH WIND       PRES   REMARKS
FARMINGTON     MOCLDY    46  41  82 N3        30.10R
LOS ALAMOS     MOCLDY    49  44  80 S3        30.19S
SANTA FE       CLOUDY    51  48  89 MISG      30.16R
TAOS           CLOUDY    48  43  81 NE7       30.19S
ANGEL FIRE     CLOUDY    42  39  89 CALM      30.22S

$$
NMZ402-403-502-505>509-221000-
WESTCENTRAL MOUNTAINS/SOUTHWEST MOUNTAINS

CITY           SKY/WX    TMP DP  RH WIND       PRES   REMARKS
GALLUP         CLEAR     42  39  89 CALM      30.16S
GRANTS         CLEAR     41  41 100 CALM      30.18R
SILVER CITY    CLEAR     52  50  93 NE6       30.14F

$$
NMZ407-409-411-412-221000-
SOUTHERN DESERTS

CITY           SKY/WX    TMP DP  RH WIND       PRES   REMARKS
LORDSBURG      FAIR      54  50  87 MISG      30.06S
DEMING         CLEAR     55  53  93 NE8       30.07F
LAS CRUCES     CLEAR     57  53  86 SE3       30.10S
HOLLOMAN AFB   PTCLDY    53  50  89 NE6       30.08S
T OR C         CLEAR     54  50  86 W6        30.10S

$$
NMZ519>523-221000-
CENTRAL VALLEYS/CENTRAL HIGHLANDS

CITY           SKY/WX    TMP DP  RH WIND       PRES   REMARKS
ALBUQUERQUE    MOCLDY    53  47  79 E6        30.12S
DOUBLE EAGLE   CLOUDY    51  48  89 S3        30.14F
MORIARTY ARPT  FOG       46  44  93 CALM      30.17S VSB 1/4
CLINES CORNERS PTCLDY    45  44  97 SW10      30.17S
BELEN          NOT AVBL
SOCORRO        FAIR      52  50  92 S7        30.11S

$$
NMZ524>526-539-540-221000-
SOUTHCENTRAL MOUNTAINS

CITY           SKY/WX    TMP DP  RH WIND       PRES   REMARKS
RUIDOSO        CLEAR     45  45 100 W5        30.21S

$$
NMZ527>531-221000-
NORTHEAST HIGHLANDS/NORTHEAST PLAINS

CITY           SKY/WX    TMP DP  RH WIND       PRES   REMARKS
LAS VEGAS      CLOUDY    47  47 100 S10       30.15S FOG
RATON          CLOUDY    50  48  93 W3        30.09F
CLAYTON        CLOUDY    55  51  86 S17       30.05F

$$
NMZ532>537-221000-
EASTCENTRAL PLAINS

CITY           SKY/WX    TMP DP  RH WIND       PRES   REMARKS
TUCUMCARI      CLOUDY    61  56  83 SW7       30.06F
CANNON AFB     CLOUDY    57  55  94 SW5       30.11S FOG
CLOVIS AIRPORT CLOUDY    57  54  88 SW6       30.13S

$$
NMZ028-029-538-221000-
SOUTHEAST PLAINS

CITY           SKY/WX    TMP DP  RH WIND       PRES   REMARKS
ROSWELL        CLOUDY    61  60  97 S3        30.08S FOG
CARLSBAD       CLOUDY    63  60  90 S5        30.06S
HOBBS          CLOUDY    59  59 100 CALM      30.10S


$$



USA.gov is the U.S. government's official web portal to all federal, state and local government web resources and services.